{"data":{"norad_id":54008,"intl_designator":"2022-125AW","name":"STARLINK-5145","alt_names":[],"object_type":"PAYLOAD","status":"ACTIVE","operator":null,"country":"US","launch_date":"2022-10-05","launch_site_code":"AFWTR","launch_vehicle":null,"mission":null,"orbit_class":"UNKNOWN","rcs_meters":null,"size_class":null,"mass_kg":null,"dimensions":null,"purposes":["comms"],"wikipedia_slug":null,"has_3d_model":false,"image_url":null,"decayed_at":null,"tle_current":{"epoch":"2026-09-20T16:09:45.210816Z","epoch_age_seconds":71546,"freshness":"FRESH","line1":"1 54008U 22125AW  26263.67343994  .00000593  00000+0  28697-4 0  9995","line2":"2 54008  53.1616  36.5942 0000775  69.6162 290.4923 15.34385007219208","mean_motion":15.34385007,"eccentricity":7.75e-5,"inclination_deg":53.1616,"raan_deg":36.5942,"arg_perigee_deg":69.6162,"mean_anomaly_deg":290.4923,"bstar":2.8697e-5,"rev_number":21920,"period_min":93.848675099834,"perigee_km":462.21763435337,"apogee_km":463.27797149782,"semimajor_km":6840.8848029256,"source":"CELESTRAK","updated_at":"2026-09-21T09:00:33.073964Z"}}}